sat.trackr.live / text

‹ back to catalog

STARLINK-37274

NORAD 68724 · 2026-081AB

PAYLOAD ACTIVE UNKNOWN

§ Identity

Operator
Country
US
Launch date
2026-04-14
Launch site
AFETR
Launch vehicle
Mass (kg)
RCS (m²)

Purposes: comms

External: N2YO · Heavens-Above · Gunter

§ Orbital elements

Epoch: 2026-09-20T02:55:01.291008Z

Period
93.85 min
Inclination
53.1574°
Eccentricity
0.0001272
Mean motion
15.34404095 rev/d
Perigee alt
461.8 km
Apogee alt
463.6 km
Semi-major
6,840.8 km
B*
3.6041e-4
RAAN
207.2466°
Arg perigee
87.1829°
Mean anomaly
272.9319°
Rev number
2,456

§ Raw data

STARLINK-372741 68724U 26081AB  26263.12154272  .00011822  00000+0  36041-3 0  99972 68724  53.1574 207.2466 0001272  87.1829 272.9319 15.34404095 24563

JSON: /api/v1/satellites/68724 · /tle

For live sub-satellite position, see the globe view (requires WebGL).

§ Visibility from observer

Set your observer location to see the next 7 days of passes ≥ 10°. The values pass through the URL so the page stays shareable.

No JS? Fill the form by hand. The geolocation button needs JavaScript.